Time,TemperatureF,DewpointF,PressureIn,WindDirection,WindDirectionDegrees,WindSpeedMPH,WindSpeedGustMPH,Humidity,HourlyPrecipIn,Conditions,Clouds,dailyrainin,SoftwareType,DateUTC
2013-10-20 00:01:00,45.7,40.2,30.32,ESE,112,0.0,0.0,81,0.00,,,0.00,WUHU21623XXSP,2013-10-20 04:01:00,
2013-10-20 00:06:00,45.3,39.9,30.31,ESE,112,0.9,0.9,81,0.00,,,0.00,WUHU21623XXSP,2013-10-20 04:06:00,
2013-10-20 00:11:00,45.1,39.9,30.31,ESE,112,0.9,0.9,81,0.00,,,0.00,WUHU21623XXSP,2013-10-20 04:11:00,
2013-10-20 00:16:00,45.1,40.0,30.31,SE,135,0.0,0.9,82,0.00,,,0.00,WUHU21623XXSP,2013-10-20 04:16:00,
2013-10-20 00:21:00,45.0,39.8,30.31,South,180,0.0,0.0,82,0.00,,,0.00,WUHU21623XXSP,2013-10-20 04:21:00,
2013-10-20 00:26:00,44.8,39.6,30.31,ESE,112,0.0,1.6,82,0.00,,,0.00,WUHU21623XXSP,2013-10-20 04:26:00,
2013-10-20 00:31:00,44.8,39.6,30.31,ESE,112,0.0,1.6,82,0.00,,,0.00,WUHU21623XXSP,2013-10-20 04:31:00,
2013-10-20 00:36:00,44.8,39.6,30.31,South,180,0.0,0.0,82,0.00,,,0.00,WUHU21623XXSP,2013-10-20 04:36:00,
2013-10-20 00:41:00,44.8,39.6,30.31,NNW,337,0.0,0.0,82,0.00,,,0.00,WUHU21623XXSP,2013-10-20 04:41:00,
2013-10-20 00:46:00,44.8,39.6,30.31,NNW,337,0.0,0.0,82,0.00,,,0.00,WUHU21623XXSP,2013-10-20 04:46:00,
2013-10-20 00:51:00,44.8,39.6,30.31,ENE,67,0.0,0.0,82,0.00,,,0.00,WUHU21623XXSP,2013-10-20 04:51:00,
2013-10-20 00:56:00,44.6,39.5,30.31,ESE,112,0.0,0.0,82,0.00,,,0.00,WUHU21623XXSP,2013-10-20 04:56:00,
2013-10-20 01:01:00,44.8,39.6,30.31,SE,135,0.7,0.7,82,0.00,,,0.00,WUHU21623XXSP,2013-10-20 05:01:00,
2013-10-20 01:06:00,45.0,39.8,30.31,SE,135,0.0,0.7,82,0.00,,,0.00,WUHU21623XXSP,2013-10-20 05:06:00,
2013-10-20 01:11:00,45.0,39.8,30.31,WSW,247,0.0,1.3,82,0.00,,,0.00,WUHU21623XXSP,2013-10-20 05:11:00,
2013-10-20 01:16:00,45.0,39.8,30.31,SE,135,0.0,1.3,82,0.00,,,0.00,WUHU21623XXSP,2013-10-20 05:16:00,
2013-10-20 01:21:00,45.0,39.8,30.31,NNW,337,0.0,0.7,82,0.00,,,0.00,WUHU21623XXSP,2013-10-20 05:21:00,
2013-10-20 01:26:00,44.8,39.6,30.32,SE,135,0.0,0.0,82,0.00,,,0.00,WUHU21623XXSP,2013-10-20 05:26:00,
2013-10-20 01:31:00,44.4,39.3,30.31,North,0,0.0,0.0,82,0.00,,,0.00,WUHU21623XXSP,2013-10-20 05:31:00,
2013-10-20 01:36:00,44.4,39.3,30.32,SSE,157,0.0,0.0,82,0.00,,,0.00,WUHU21623XXSP,2013-10-20 05:36:00,
2013-10-20 01:41:00,44.4,39.3,30.32,South,180,2.2,2.2,82,0.00,,,0.00,WUHU21623XXSP,2013-10-20 05:41:00,
2013-10-20 01:46:00,44.4,39.6,30.32,SE,135,1.1,2.2,83,0.00,,,0.00,WUHU21623XXSP,2013-10-20 05:46:00,
2013-10-20 01:51:00,44.8,39.5,30.32,SE,135,2.2,2.2,82,0.00,,,0.00,WUHU21623XXSP,2013-10-20 05:51:00,
2013-10-20 01:56:00,44.8,39.6,30.32,SSE,157,1.6,2.2,82,0.00,,,0.00,WUHU21623XXSP,2013-10-20 05:56:00,
2013-10-20 02:01:00,44.6,39.6,30.32,SE,135,0.7,1.6,83,0.00,,,0.00,WUHU21623XXSP,2013-10-20 06:01:00,
2013-10-20 02:06:00,44.6,39.8,30.32,SE,135,0.7,0.7,83,0.00,,,0.00,WUHU21623XXSP,2013-10-20 06:06:00,
2013-10-20 02:11:00,44.4,39.6,30.32,SE,135,0.4,0.7,83,0.00,,,0.00,WUHU21623XXSP,2013-10-20 06:11:00,
2013-10-20 02:16:00,44.4,39.6,30.32,SE,135,1.8,2.9,83,0.00,,,0.00,WUHU21623XXSP,2013-10-20 06:16:00,
2013-10-20 02:21:00,44.2,39.4,30.32,SE,135,1.8,2.9,83,0.00,,,0.00,WUHU21623XXSP,2013-10-20 06:21:00,
2013-10-20 02:26:00,44.2,39.4,30.32,ESE,112,0.0,1.8,83,0.00,,,0.00,WUHU21623XXSP,2013-10-20 06:26:00,
2013-10-20 02:31:00,44.2,39.4,30.32,WSW,247,0.0,0.0,83,0.00,,,0.00,WUHU21623XXSP,2013-10-20 06:31:00,
2013-10-20 02:36:00,43.9,39.3,30.32,SSE,157,0.0,0.0,84,0.00,,,0.00,WUHU21623XXSP,2013-10-20 06:36:00,
2013-10-20 02:41:00,43.9,39.3,30.32,SSE,157,0.0,0.0,84,0.00,,,0.00,WUHU21623XXSP,2013-10-20 06:41:00,
2013-10-20 02:46:00,43.7,39.3,30.33,SE,135,0.0,1.6,84,0.00,,,0.00,WUHU21623XXSP,2013-10-20 06:46:00,
2013-10-20 02:51:00,43.7,39.5,30.32,WSW,247,0.0,1.6,85,0.00,,,0.00,WUHU21623XXSP,2013-10-20 06:51:00,
2013-10-20 02:56:00,43.7,39.2,30.32,SSW,202,0.0,0.0,84,0.00,,,0.00,WUHU21623XXSP,2013-10-20 06:56:00,
2013-10-20 03:01:00,43.5,39.0,30.32,SSW,202,0.0,0.0,84,0.00,,,0.00,WUHU21623XXSP,2013-10-20 07:01:00,
2013-10-20 03:06:00,43.2,38.9,30.33,ENE,67,0.0,0.0,85,0.00,,,0.00,WUHU21623XXSP,2013-10-20 07:06:00,
2013-10-20 03:11:00,43.3,39.1,30.32,WNW,292,0.0,0.0,85,0.00,,,0.00,WUHU21623XXSP,2013-10-20 07:11:00,
2013-10-20 03:16:00,43.2,38.9,30.32,SE,135,0.0,0.0,85,0.00,,,0.00,WUHU21623XXSP,2013-10-20 07:16:00,
2013-10-20 03:21:00,43.0,38.8,30.33,SE,135,0.0,0.9,85,0.00,,,0.00,WUHU21623XXSP,2013-10-20 07:21:00,
2013-10-20 03:26:00,42.6,38.7,30.33,SE,135,0.0,0.9,86,0.00,,,0.00,WUHU21623XXSP,2013-10-20 07:26:00,
2013-10-20 03:31:00,42.4,38.5,30.33,SE,135,0.0,0.0,86,0.00,,,0.00,WUHU21623XXSP,2013-10-20 07:31:00,
2013-10-20 03:36:00,42.1,38.2,30.33,SE,135,0.0,0.0,86,0.00,,,0.00,WUHU21623XXSP,2013-10-20 07:36:00,
2013-10-20 03:41:00,42.1,38.2,30.33,SE,135,0.0,0.0,86,0.00,,,0.00,WUHU21623XXSP,2013-10-20 07:41:00,
2013-10-20 03:46:00,42.3,38.5,30.32,SE,135,0.7,0.7,87,0.00,,,0.00,WUHU21623XXSP,2013-10-20 07:46:00,
2013-10-20 03:51:00,42.4,38.5,30.32,SE,135,0.0,0.9,86,0.00,,,0.00,WUHU21623XXSP,2013-10-20 07:51:00,
2013-10-20 03:56:00,42.4,38.8,30.32,SE,135,0.0,1.1,87,0.00,,,0.00,WUHU21623XXSP,2013-10-20 07:56:00,
2013-10-20 04:01:00,42.4,38.8,30.32,ESE,112,0.0,1.1,87,0.00,,,0.00,WUHU21623XXSP,2013-10-20 08:01:00,
2013-10-20 04:06:00,42.4,38.8,30.32,SE,135,0.4,0.4,86,0.00,,,0.00,WUHU21623XXSP,2013-10-20 08:06:00,
2013-10-20 04:11:00,42.4,38.5,30.32,SE,135,1.6,1.6,86,0.00,,,0.00,WUHU21623XXSP,2013-10-20 08:11:00,
2013-10-20 04:16:00,42.4,38.5,30.32,SE,135,1.1,1.6,86,0.00,,,0.00,WUHU21623XXSP,2013-10-20 08:16:00,
2013-10-20 04:21:00,42.4,38.5,30.33,SE,135,0.9,1.6,86,0.00,,,0.00,WUHU21623XXSP,2013-10-20 08:21:00,
2013-10-20 04:26:00,42.4,38.5,30.33,SE,135,0.0,0.9,86,0.00,,,0.00,WUHU21623XXSP,2013-10-20 08:26:00,
2013-10-20 04:31:00,42.4,38.8,30.33,SE,135,0.0,0.7,87,0.00,,,0.00,WUHU21623XXSP,2013-10-20 08:31:00,
2013-10-20 04:36:00,42.4,38.8,30.33,SE,135,0.0,1.1,87,0.00,,,0.00,WUHU21623XXSP,2013-10-20 08:36:00,
2013-10-20 04:41:00,42.3,38.6,30.33,SE,135,0.0,1.1,87,0.00,,,0.00,WUHU21623XXSP,2013-10-20 08:41:00,
2013-10-20 04:46:00,42.1,38.5,30.33,SE,135,0.9,0.9,87,0.00,,,0.00,WUHU21623XXSP,2013-10-20 08:46:00,
2013-10-20 04:51:00,42.1,38.5,30.33,SE,135,0.0,0.9,87,0.00,,,0.00,WUHU21623XXSP,2013-10-20 08:51:00,
2013-10-20 04:56:00,42.1,38.5,30.33,SE,135,0.0,0.0,87,0.00,,,0.00,WUHU21623XXSP,2013-10-20 08:56:00,
2013-10-20 05:01:00,42.1,38.5,30.33,SE,135,0.0,0.0,87,0.00,,,0.00,WUHU21623XXSP,2013-10-20 09:01:00,
2013-10-20 05:06:00,41.9,38.3,30.33,SE,135,0.0,0.0,87,0.00,,,0.00,WUHU21623XXSP,2013-10-20 09:06:00,
2013-10-20 05:11:00,41.9,38.6,30.34,SE,135,0.0,0.0,88,0.00,,,0.00,WUHU21623XXSP,2013-10-20 09:11:00,
2013-10-20 05:16:00,41.7,38.4,30.34,SE,135,0.0,0.0,88,0.00,,,0.00,WUHU21623XXSP,2013-10-20 09:16:00,
2013-10-20 05:21:00,41.9,38.6,30.34,SE,135,0.0,0.0,88,0.00,,,0.00,WUHU21623XXSP,2013-10-20 09:21:00,
2013-10-20 05:26:00,41.9,38.6,30.34,SSE,157,0.0,0.0,88,0.00,,,0.00,WUHU21623XXSP,2013-10-20 09:26:00,
2013-10-20 05:31:00,42.1,38.8,30.34,ESE,112,0.0,0.4,88,0.00,,,0.00,WUHU21623XXSP,2013-10-20 09:31:00,
2013-10-20 05:36:00,42.1,38.8,30.34,SE,135,0.0,0.4,88,0.00,,,0.00,WUHU21623XXSP,2013-10-20 09:36:00,
2013-10-20 05:41:00,42.1,38.8,30.34,SE,135,0.0,0.0,88,0.00,,,0.00,WUHU21623XXSP,2013-10-20 09:41:00,
2013-10-20 05:46:00,41.9,38.6,30.35,SSE,157,0.0,0.0,88,0.00,,,0.00,WUHU21623XXSP,2013-10-20 09:46:00,
2013-10-20 05:51:00,41.9,38.6,30.35,SE,135,0.0,0.0,88,0.00,,,0.00,WUHU21623XXSP,2013-10-20 09:51:00,
2013-10-20 05:56:00,42.1,38.6,30.35,SSE,157,1.1,1.1,88,0.00,,,0.00,WUHU21623XXSP,2013-10-20 09:56:00,
2013-10-20 06:01:00,41.9,38.6,30.35,SSE,157,0.0,1.1,88,0.00,,,0.00,WUHU21623XXSP,2013-10-20 10:01:00,
2013-10-20 06:06:00,41.9,38.6,30.35,SE,135,0.0,0.0,88,0.00,,,0.00,WUHU21623XXSP,2013-10-20 10:06:00,
2013-10-20 06:11:00,41.9,38.6,30.35,SE,135,0.9,0.9,88,0.00,,,0.00,WUHU21623XXSP,2013-10-20 10:11:00,
2013-10-20 06:16:00,41.9,38.6,30.35,SE,135,0.0,0.9,88,0.00,,,0.00,WUHU21623XXSP,2013-10-20 10:16:00,
2013-10-20 06:21:00,41.9,38.6,30.35,SSE,157,0.0,0.9,88,0.00,,,0.00,WUHU21623XXSP,2013-10-20 10:21:00,
2013-10-20 06:26:00,41.9,38.6,30.35,SE,135,1.1,1.1,88,0.00,,,0.00,WUHU21623XXSP,2013-10-20 10:26:00,
2013-10-20 06:31:00,42.1,38.8,30.35,SE,135,0.0,5.8,88,0.00,,,0.00,WUHU21623XXSP,2013-10-20 10:31:00,
2013-10-20 06:36:00,42.1,38.8,30.35,SSE,157,2.0,5.8,88,0.00,,,0.00,WUHU21623XXSP,2013-10-20 10:36:00,
2013-10-20 06:41:00,42.1,38.8,30.35,SE,135,0.0,2.0,88,0.00,,,0.00,WUHU21623XXSP,2013-10-20 10:41:00,
2013-10-20 06:46:00,42.1,38.8,30.35,SE,135,0.0,0.4,88,0.00,,,0.00,WUHU21623XXSP,2013-10-20 10:46:00,
2013-10-20 06:51:00,42.1,38.8,30.35,SE,135,2.2,2.2,88,0.00,,,0.00,WUHU21623XXSP,2013-10-20 10:51:00,
2013-10-20 06:56:00,42.1,38.8,30.35,SE,135,1.6,2.2,88,0.00,,,0.00,WUHU21623XXSP,2013-10-20 10:56:00,
2013-10-20 07:01:00,42.1,38.8,30.35,SE,135,1.6,2.2,88,0.00,,,0.00,WUHU21623XXSP,2013-10-20 11:01:00,
2013-10-20 07:06:00,42.1,38.8,30.35,SE,135,0.2,1.6,88,0.00,,,0.00,WUHU21623XXSP,2013-10-20 11:06:00,
2013-10-20 07:11:00,42.1,38.8,30.35,SE,135,0.0,1.6,88,0.00,,,0.00,WUHU21623XXSP,2013-10-20 11:11:00,
2013-10-20 07:16:00,41.9,38.6,30.36,ESE,112,0.0,0.2,88,0.00,,,0.00,WUHU21623XXSP,2013-10-20 11:16:00,
2013-10-20 07:21:00,41.9,38.6,30.36,SE,135,0.7,0.7,88,0.00,,,0.00,WUHU21623XXSP,2013-10-20 11:21:00,
2013-10-20 07:26:00,41.9,38.6,30.36,SE,135,0.0,0.7,88,0.00,,,0.00,WUHU21623XXSP,2013-10-20 11:26:00,
2013-10-20 07:31:00,41.9,38.6,30.36,SE,135,4.5,4.5,88,0.00,,,0.00,WUHU21623XXSP,2013-10-20 11:31:00,
2013-10-20 07:36:00,41.9,38.6,30.36,SE,135,4.5,4.5,88,0.00,,,0.00,WUHU21623XXSP,2013-10-20 11:36:00,
2013-10-20 07:41:00,41.9,38.6,30.36,SE,135,0.0,4.5,88,0.00,,,0.00,WUHU21623XXSP,2013-10-20 11:41:00,
2013-10-20 07:46:00,41.7,38.4,30.36,SE,135,0.0,0.0,88,0.00,,,0.00,WUHU21623XXSP,2013-10-20 11:46:00,
2013-10-20 07:51:00,41.7,38.4,30.36,SE,135,2.2,2.2,88,0.00,,,0.00,WUHU21623XXSP,2013-10-20 11:51:00,
2013-10-20 07:56:00,41.7,38.4,30.36,SE,135,0.0,2.2,88,0.00,,,0.00,WUHU21623XXSP,2013-10-20 11:56:00,
2013-10-20 08:01:00,41.9,38.6,30.36,SE,135,4.5,4.5,88,0.00,,,0.00,WUHU21623XXSP,2013-10-20 12:01:00,
2013-10-20 08:06:00,41.9,38.6,30.37,ESE,112,1.3,4.5,88,0.00,,,0.00,WUHU21623XXSP,2013-10-20 12:06:00,
2013-10-20 08:11:00,41.9,38.6,30.37,SSE,157,1.6,1.6,88,0.00,,,0.00,WUHU21623XXSP,2013-10-20 12:11:00,
2013-10-20 08:16:00,42.1,38.8,30.37,SSE,157,0.0,2.7,88,0.00,,,0.00,WUHU21623XXSP,2013-10-20 12:16:00,
2013-10-20 08:21:00,42.1,38.8,30.37,ESE,112,0.0,3.8,88,0.00,,,0.00,WUHU21623XXSP,2013-10-20 12:21:00,
2013-10-20 08:26:00,42.4,38.8,30.37,SE,135,4.3,6.5,87,0.00,,,0.00,WUHU21623XXSP,2013-10-20 12:26:00,
2013-10-20 08:31:00,42.4,38.8,30.38,SE,135,4.0,6.5,87,0.00,,,0.00,WUHU21623XXSP,2013-10-20 12:31:00,
2013-10-20 08:36:00,42.4,38.8,30.38,SE,135,3.8,4.3,87,0.00,,,0.00,WUHU21623XXSP,2013-10-20 12:36:00,
2013-10-20 08:41:00,42.6,39.0,30.38,SE,135,2.7,3.8,87,0.00,,,0.00,WUHU21623XXSP,2013-10-20 12:41:00,
2013-10-20 08:46:00,42.6,39.0,30.38,SSE,157,6.7,6.7,87,0.00,,,0.00,WUHU21623XXSP,2013-10-20 12:46:00,
2013-10-20 08:51:00,42.8,39.2,30.38,South,180,3.8,6.7,87,0.00,,,0.00,WUHU21623XXSP,2013-10-20 12:51:00,
2013-10-20 08:56:00,42.8,39.2,30.38,SE,135,2.2,4.3,87,0.00,,,0.00,WUHU21623XXSP,2013-10-20 12:56:00,
2013-10-20 09:01:00,43.0,39.4,30.39,SE,135,1.3,4.3,87,0.00,,,0.00,WUHU21623XXSP,2013-10-20 13:01:00,
2013-10-20 09:06:00,43.3,39.4,30.39,SSE,157,3.1,7.2,86,0.00,,,0.00,WUHU21623XXSP,2013-10-20 13:06:00,
2013-10-20 09:11:00,43.3,39.4,30.39,SSE,157,0.0,7.2,86,0.00,,,0.00,WUHU21623XXSP,2013-10-20 13:11:00,
2013-10-20 09:16:00,43.5,39.6,30.39,SSE,157,0.0,0.0,86,0.00,,,0.00,WUHU21623XXSP,2013-10-20 13:16:00,
2013-10-20 09:21:00,43.7,39.5,30.39,ENE,67,1.3,1.3,85,0.00,,,0.00,WUHU21623XXSP,2013-10-20 13:21:00,
2013-10-20 09:26:00,43.9,39.5,30.39,ENE,67,1.3,1.3,85,0.00,,,0.00,WUHU21623XXSP,2013-10-20 13:26:00,
2013-10-20 09:31:00,43.9,39.6,30.39,ESE,112,0.0,1.3,85,0.00,,,0.00,WUHU21623XXSP,2013-10-20 13:31:00,
2013-10-20 09:36:00,44.2,39.5,30.40,East,90,0.0,3.4,83,0.00,,,0.00,WUHU21623XXSP,2013-10-20 13:36:00,
2013-10-20 09:41:00,44.2,39.4,30.40,SSE,157,0.0,3.4,83,0.00,,,0.00,WUHU21623XXSP,2013-10-20 13:41:00,
2013-10-20 09:46:00,44.4,39.6,30.40,SE,135,2.2,2.2,83,0.00,,,0.00,WUHU21623XXSP,2013-10-20 13:46:00,
2013-10-20 09:51:00,45.0,39.8,30.40,SE,135,0.9,2.9,82,0.00,,,0.00,WUHU21623XXSP,2013-10-20 13:51:00,
2013-10-20 09:56:00,45.0,39.8,30.40,SE,135,0.9,2.9,82,0.00,,,0.00,WUHU21623XXSP,2013-10-20 13:56:00,
2013-10-20 10:01:00,45.3,40.2,30.39,SE,135,2.5,2.5,82,0.00,,,0.00,WUHU21623XXSP,2013-10-20 14:01:00,
2013-10-20 10:06:00,45.7,40.2,30.39,ESE,112,5.6,5.6,81,0.00,,,0.00,WUHU21623XXSP,2013-10-20 14:06:00,
2013-10-20 10:11:00,45.9,40.4,30.40,SSE,157,4.3,5.6,81,0.00,,,0.00,WUHU21623XXSP,2013-10-20 14:11:00,
2013-10-20 10:16:00,46.0,40.3,30.40,ESE,112,7.6,7.6,80,0.00,,,0.00,WUHU21623XXSP,2013-10-20 14:16:00,
2013-10-20 10:21:00,46.4,40.0,30.39,SE,135,4.0,7.6,78,0.00,,,0.00,WUHU21623XXSP,2013-10-20 14:21:00,
2013-10-20 10:26:00,46.6,40.1,30.40,SE,135,4.0,7.6,78,0.00,,,0.00,WUHU21623XXSP,2013-10-20 14:26:00,
2013-10-20 10:31:00,46.8,40.3,30.40,East,90,3.1,5.8,77,0.00,,,0.00,WUHU21623XXSP,2013-10-20 14:31:00,
2013-10-20 10:36:00,47.1,40.3,30.40,South,180,0.0,5.8,77,0.00,,,0.00,WUHU21623XXSP,2013-10-20 14:36:00,
2013-10-20 10:41:00,48.0,40.4,30.40,South,180,0.0,1.8,76,0.00,,,0.00,WUHU21623XXSP,2013-10-20 14:41:00,
2013-10-20 10:46:00,48.0,40.7,30.40,SSE,157,2.9,5.6,75,0.00,,,0.00,WUHU21623XXSP,2013-10-20 14:46:00,
2013-10-20 10:51:00,48.6,40.6,30.40,East,90,1.6,5.6,74,0.00,,,0.00,WUHU21623XXSP,2013-10-20 14:51:00,
2013-10-20 10:56:00,48.9,40.7,30.40,SE,135,3.6,3.6,74,0.00,,,0.00,WUHU21623XXSP,2013-10-20 14:56:00,
2013-10-20 11:01:00,48.9,40.6,30.40,SE,135,2.7,3.6,73,0.00,,,0.00,WUHU21623XXSP,2013-10-20 15:01:00,
2013-10-20 11:06:00,49.6,40.9,30.40,SSE,157,0.0,6.9,73,0.00,,,0.00,WUHU21623XXSP,2013-10-20 15:06:00,
2013-10-20 11:11:00,50.0,41.3,30.40,SSE,157,15.9,15.9,71,0.00,,,0.00,WUHU21623XXSP,2013-10-20 15:11:00,
2013-10-20 11:16:00,50.2,41.2,30.40,SSE,157,15.9,15.9,71,0.00,,,0.00,WUHU21623XXSP,2013-10-20 15:16:00,
2013-10-20 11:21:00,50.5,41.2,30.40,SSE,157,2.5,15.9,70,0.00,,,0.00,WUHU21623XXSP,2013-10-20 15:21:00,
2013-10-20 11:26:00,50.7,41.4,30.40,ESE,112,1.3,15.9,70,0.00,,,0.00,WUHU21623XXSP,2013-10-20 15:26:00,
2013-10-20 11:31:00,50.7,41.4,30.41,ESE,112,1.3,5.6,70,0.00,,,0.00,WUHU21623XXSP,2013-10-20 15:31:00,
2013-10-20 11:36:00,51.3,41.5,30.40,SE,135,7.8,7.8,69,0.00,,,0.00,WUHU21623XXSP,2013-10-20 15:36:00,
2013-10-20 11:41:00,51.4,41.3,30.40,SE,135,1.6,7.8,68,0.00,,,0.00,WUHU21623XXSP,2013-10-20 15:41:00,
2013-10-20 11:46:00,52.0,41.4,30.40,SE,135,0.0,4.3,68,0.00,,,0.00,WUHU21623XXSP,2013-10-20 15:46:00,
2013-10-20 11:51:00,52.2,41.1,30.40,SE,135,3.1,7.2,66,0.00,,,0.00,WUHU21623XXSP,2013-10-20 15:51:00,
2013-10-20 11:56:00,52.3,41.3,30.40,SE,135,0.0,7.2,66,0.00,,,0.00,WUHU21623XXSP,2013-10-20 15:56:00,
2013-10-20 12:01:00,52.3,41.3,30.41,East,90,0.0,5.8,66,0.00,,,0.00,WUHU21623XXSP,2013-10-20 16:01:00,
2013-10-20 12:06:00,52.7,40.8,30.40,SE,135,4.3,5.8,64,0.00,,,0.00,WUHU21623XXSP,2013-10-20 16:06:00,
2013-10-20 12:11:00,53.2,41.0,30.40,SE,135,3.8,4.3,63,0.00,,,0.00,WUHU21623XXSP,2013-10-20 16:11:00,
2013-10-20 12:16:00,53.4,40.7,30.41,SE,135,3.4,5.6,62,0.00,,,0.00,WUHU21623XXSP,2013-10-20 16:16:00,
2013-10-20 12:21:00,54.1,41.0,30.41,ESE,112,0.7,10.3,61,0.00,,,0.00,WUHU21623XXSP,2013-10-20 16:21:00,
2013-10-20 12:26:00,54.7,41.1,30.40,ESE,112,0.7,10.3,59,0.00,,,0.00,WUHU21623XXSP,2013-10-20 16:26:00,
2013-10-20 12:31:00,54.5,40.4,30.40,ESE,112,5.8,5.8,59,0.00,,,0.00,WUHU21623XXSP,2013-10-20 16:31:00,
2013-10-20 12:36:00,54.5,39.8,30.40,SE,135,3.1,5.8,56,0.00,,,0.00,WUHU21623XXSP,2013-10-20 16:36:00,
2013-10-20 12:41:00,54.3,38.9,30.40,SE,135,3.1,5.4,57,0.00,,,0.00,WUHU21623XXSP,2013-10-20 16:41:00,
2013-10-20 12:46:00,54.5,39.0,30.40,ESE,112,6.0,6.7,56,0.00,,,0.00,WUHU21623XXSP,2013-10-20 16:46:00,
2013-10-20 12:51:00,55.0,38.1,30.39,SSE,157,8.7,8.7,53,0.00,,,0.00,WUHU21623XXSP,2013-10-20 16:51:00,
2013-10-20 12:56:00,55.2,38.8,30.39,SE,135,8.5,8.7,54,0.00,,,0.00,WUHU21623XXSP,2013-10-20 16:56:00,
2013-10-20 13:01:00,55.2,38.3,30.39,SE,135,7.4,8.5,52,0.00,,,0.00,WUHU21623XXSP,2013-10-20 17:01:00,
2013-10-20 13:06:00,55.0,38.1,30.39,South,180,2.5,7.4,53,0.00,,,0.00,WUHU21623XXSP,2013-10-20 17:06:00,
2013-10-20 13:11:00,55.6,38.2,30.39,SE,135,11.9,11.9,52,0.00,,,0.00,WUHU21623XXSP,2013-10-20 17:11:00,
2013-10-20 13:16:00,55.9,38.5,30.39,SSE,157,10.5,11.9,52,0.00,,,0.00,WUHU21623XXSP,2013-10-20 17:16:00,
2013-10-20 13:21:00,56.1,37.8,30.39,SE,135,0.0,11.9,50,0.00,,,0.00,WUHU21623XXSP,2013-10-20 17:21:00,
2013-10-20 13:26:00,56.1,38.7,30.39,ESE,112,0.0,7.6,52,0.00,,,0.00,WUHU21623XXSP,2013-10-20 17:26:00,
2013-10-20 13:31:00,56.8,39.4,30.38,SE,135,6.0,7.6,52,0.00,,,0.00,WUHU21623XXSP,2013-10-20 17:31:00,
2013-10-20 13:36:00,56.5,37.9,30.38,SSE,157,8.5,11.6,48,0.00,,,0.00,WUHU21623XXSP,2013-10-20 17:36:00,
2013-10-20 13:41:00,56.5,37.0,30.38,SSE,157,8.5,11.6,48,0.00,,,0.00,WUHU21623XXSP,2013-10-20 17:41:00,
2013-10-20 13:46:00,56.7,36.4,30.38,SE,135,9.6,9.6,48,0.00,,,0.00,WUHU21623XXSP,2013-10-20 17:46:00,
2013-10-20 13:51:00,57.0,36.9,30.38,ESE,112,4.7,11.9,47,0.00,,,0.00,WUHU21623XXSP,2013-10-20 17:51:00,
2013-10-20 13:56:00,56.8,37.3,30.37,SSE,157,8.3,11.9,48,0.00,,,0.00,WUHU21623XXSP,2013-10-20 17:56:00,
2013-10-20 14:01:00,57.0,36.8,30.38,SSE,157,8.3,8.3,47,0.00,,,0.00,WUHU21623XXSP,2013-10-20 18:01:00,
2013-10-20 14:06:00,57.6,37.4,30.37,SSE,157,2.0,11.6,47,0.00,,,0.00,WUHU21623XXSP,2013-10-20 18:06:00,
2013-10-20 14:11:00,57.7,37.6,30.37,SSE,157,2.5,11.6,47,0.00,,,0.00,WUHU21623XXSP,2013-10-20 18:11:00,
2013-10-20 14:16:00,57.9,36.6,30.37,SE,135,0.9,4.9,45,0.00,,,0.00,WUHU21623XXSP,2013-10-20 18:16:00,
2013-10-20 14:21:00,57.7,37.0,30.37,SE,135,2.2,6.9,46,0.00,,,0.00,WUHU21623XXSP,2013-10-20 18:21:00,
2013-10-20 14:26:00,57.9,36.6,30.37,SSE,157,6.7,6.9,45,0.00,,,0.00,WUHU21623XXSP,2013-10-20 18:26:00,
2013-10-20 14:31:00,57.6,36.9,30.37,SE,135,3.8,6.7,46,0.00,,,0.00,WUHU21623XXSP,2013-10-20 18:31:00,
2013-10-20 14:36:00,57.6,36.1,30.37,ESE,112,2.5,8.9,45,0.00,,,0.00,WUHU21623XXSP,2013-10-20 18:36:00,
2013-10-20 14:41:00,57.9,36.6,30.37,SE,135,6.3,8.9,45,0.00,,,0.00,WUHU21623XXSP,2013-10-20 18:41:00,
2013-10-20 14:46:00,57.9,36.0,30.36,ENE,67,0.9,8.1,44,0.00,,,0.00,WUHU21623XXSP,2013-10-20 18:46:00,
2013-10-20 14:51:00,57.7,35.9,30.36,ENE,67,0.9,8.1,44,0.00,,,0.00,WUHU21623XXSP,2013-10-20 18:51:00,
2013-10-20 14:56:00,57.7,35.9,30.36,ENE,67,0.9,0.9,44,0.00,,,0.00,WUHU21623XXSP,2013-10-20 18:56:00,
2013-10-20 15:01:00,57.7,35.9,30.36,SE,135,11.4,11.4,44,0.00,,,0.00,WUHU21623XXSP,2013-10-20 19:01:00,
2013-10-20 15:06:00,57.7,36.3,30.36,NW,315,3.8,14.5,45,0.00,,,0.00,WUHU21623XXSP,2013-10-20 19:06:00,
2013-10-20 15:11:00,57.6,36.4,30.36,NW,315,3.8,14.5,44,0.00,,,0.00,WUHU21623XXSP,2013-10-20 19:11:00,
2013-10-20 15:16:00,57.7,36.4,30.36,SE,135,6.5,6.5,45,0.00,,,0.00,WUHU21623XXSP,2013-10-20 19:16:00,
2013-10-20 15:21:00,58.5,36.5,30.36,SSE,157,7.4,12.3,44,0.00,,,0.00,WUHU21623XXSP,2013-10-20 19:21:00,
2013-10-20 15:26:00,58.1,35.6,30.36,SSE,157,6.0,12.3,43,0.00,,,0.00,WUHU21623XXSP,2013-10-20 19:26:00,
2013-10-20 15:31:00,58.3,35.6,30.36,SE,135,3.6,7.4,43,0.00,,,0.00,WUHU21623XXSP,2013-10-20 19:31:00,
2013-10-20 15:36:00,58.1,36.4,30.36,SSE,157,7.8,7.8,43,0.00,,,0.00,WUHU21623XXSP,2013-10-20 19:36:00,
2013-10-20 15:41:00,58.6,36.7,30.36,SSE,157,8.3,8.3,44,0.00,,,0.00,WUHU21623XXSP,2013-10-20 19:41:00,
2013-10-20 15:46:00,58.6,36.7,30.36,SE,135,5.4,10.7,44,0.00,,,0.00,WUHU21623XXSP,2013-10-20 19:46:00,
2013-10-20 15:51:00,58.6,36.1,30.36,SE,135,6.0,10.7,43,0.00,,,0.00,WUHU21623XXSP,2013-10-20 19:51:00,
2013-10-20 15:56:00,58.6,36.7,30.36,ESE,112,6.5,6.5,44,0.00,,,0.00,WUHU21623XXSP,2013-10-20 19:56:00,
2013-10-20 16:01:00,58.8,36.8,30.36,SSE,157,2.0,7.2,44,0.00,,,0.00,WUHU21623XXSP,2013-10-20 20:01:00,
2013-10-20 16:06:00,59.5,36.9,30.36,ESE,112,6.7,7.2,43,0.00,,,0.00,WUHU21623XXSP,2013-10-20 20:06:00,
2013-10-20 16:11:00,59.5,35.8,30.36,SSE,157,5.6,6.7,41,0.00,,,0.00,WUHU21623XXSP,2013-10-20 20:11:00,
2013-10-20 16:16:00,59.2,36.0,30.36,SSE,157,11.4,11.4,42,0.00,,,0.00,WUHU21623XXSP,2013-10-20 20:16:00,
2013-10-20 16:21:00,59.4,36.8,30.36,SSE,157,2.2,11.4,43,0.00,,,0.00,WUHU21623XXSP,2013-10-20 20:21:00,
2013-10-20 16:26:00,59.2,37.2,30.36,SE,135,2.0,9.2,44,0.00,,,0.00,WUHU21623XXSP,2013-10-20 20:26:00,
2013-10-20 16:31:00,59.7,37.1,30.36,SE,135,4.7,9.2,43,0.00,,,0.00,WUHU21623XXSP,2013-10-20 20:31:00,
2013-10-20 16:36:00,59.4,36.8,30.36,ESE,112,11.4,11.4,43,0.00,,,0.00,WUHU21623XXSP,2013-10-20 20:36:00,
2013-10-20 16:41:00,58.8,36.3,30.36,SE,135,7.2,11.4,43,0.00,,,0.00,WUHU21623XXSP,2013-10-20 20:41:00,
2013-10-20 16:46:00,58.8,36.3,30.36,SE,135,3.4,11.2,43,0.00,,,0.00,WUHU21623XXSP,2013-10-20 20:46:00,
2013-10-20 16:51:00,59.4,36.8,30.36,NE,45,1.3,3.4,43,0.00,,,0.00,WUHU21623XXSP,2013-10-20 20:51:00,
2013-10-20 16:56:00,59.5,36.3,30.36,SE,135,9.2,10.1,42,0.00,,,0.00,WUHU21623XXSP,2013-10-20 20:56:00,
2013-10-20 17:01:00,59.5,36.9,30.36,ESE,112,5.4,10.1,43,0.00,,,0.00,WUHU21623XXSP,2013-10-20 21:01:00,
2013-10-20 17:06:00,59.5,37.5,30.36,WSW,247,5.4,6.0,44,0.00,,,0.00,WUHU21623XXSP,2013-10-20 21:06:00,
2013-10-20 17:11:00,59.5,37.1,30.36,WSW,247,5.1,5.4,43,0.00,,,0.00,WUHU21623XXSP,2013-10-20 21:11:00,
2013-10-20 17:16:00,59.5,36.9,30.36,SSW,202,2.0,5.1,43,0.00,,,0.00,WUHU21623XXSP,2013-10-20 21:16:00,
2013-10-20 17:21:00,59.5,36.9,30.36,WSW,247,4.9,9.6,43,0.00,,,0.00,WUHU21623XXSP,2013-10-20 21:21:00,
2013-10-20 17:26:00,59.7,37.7,30.36,WSW,247,1.8,9.6,44,0.00,,,0.00,WUHU21623XXSP,2013-10-20 21:26:00,
2013-10-20 17:31:00,59.5,36.9,30.36,WSW,247,0.0,1.8,43,0.00,,,0.00,WUHU21623XXSP,2013-10-20 21:31:00,
2013-10-20 17:36:00,59.5,36.8,30.36,WSW,247,3.6,4.9,43,0.00,,,0.00,WUHU21623XXSP,2013-10-20 21:36:00,
2013-10-20 17:41:00,59.2,36.8,30.36,SW,225,0.0,4.9,43,0.00,,,0.00,WUHU21623XXSP,2013-10-20 21:41:00,
2013-10-20 17:46:00,59.2,37.2,30.36,WSW,247,2.5,2.5,44,0.00,,,0.00,WUHU21623XXSP,2013-10-20 21:46:00,
2013-10-20 17:51:00,59.2,36.6,30.36,NW,315,0.7,2.5,43,0.00,,,0.00,WUHU21623XXSP,2013-10-20 21:51:00,
2013-10-20 17:56:00,59.0,37.0,30.36,SE,135,0.0,2.2,44,0.00,,,0.00,WUHU21623XXSP,2013-10-20 21:56:00,
2013-10-20 18:01:00,58.8,36.8,30.36,SE,135,7.6,7.6,44,0.00,,,0.00,WUHU21623XXSP,2013-10-20 22:01:00,
2013-10-20 18:06:00,58.3,36.9,30.36,SE,135,3.4,7.6,45,0.00,,,0.00,WUHU21623XXSP,2013-10-20 22:06:00,
2013-10-20 18:11:00,58.3,36.9,30.36,SE,135,3.4,3.4,45,0.00,,,0.00,WUHU21623XXSP,2013-10-20 22:11:00,
2013-10-20 18:16:00,58.3,37.5,30.36,ESE,112,0.0,3.4,46,0.00,,,0.00,WUHU21623XXSP,2013-10-20 22:16:00,
2013-10-20 18:21:00,58.3,38.1,30.37,SE,135,0.0,0.0,47,0.00,,,0.00,WUHU21623XXSP,2013-10-20 22:21:00,
2013-10-20 18:26:00,57.9,37.8,30.37,SE,135,0.0,0.0,47,0.00,,,0.00,WUHU21623XXSP,2013-10-20 22:26:00,
2013-10-20 18:31:00,57.4,37.3,30.37,SE,135,0.9,0.9,47,0.00,,,0.00,WUHU21623XXSP,2013-10-20 22:31:00,
2013-10-20 18:36:00,56.8,37.5,30.37,SE,135,2.5,2.5,48,0.00,,,0.00,WUHU21623XXSP,2013-10-20 22:36:00,
2013-10-20 18:41:00,56.8,37.3,30.37,SE,135,2.7,2.7,48,0.00,,,0.00,WUHU21623XXSP,2013-10-20 22:41:00,
2013-10-20 18:46:00,56.7,38.3,30.37,SE,135,0.0,2.7,50,0.00,,,0.00,WUHU21623XXSP,2013-10-20 22:46:00,
2013-10-20 18:51:00,56.3,38.4,30.37,SE,135,0.0,1.6,51,0.00,,,0.00,WUHU21623XXSP,2013-10-20 22:51:00,
2013-10-20 18:56:00,56.3,38.4,30.37,SE,135,1.3,1.3,52,0.00,,,0.00,WUHU21623XXSP,2013-10-20 22:56:00,
2013-10-20 19:01:00,55.8,39.3,30.37,SE,135,0.0,1.3,54,0.00,,,0.00,WUHU21623XXSP,2013-10-20 23:01:00,
2013-10-20 19:06:00,55.2,38.8,30.37,SE,135,0.0,0.0,54,0.00,,,0.00,WUHU21623XXSP,2013-10-20 23:06:00,
2013-10-20 19:11:00,55.2,39.2,30.37,SE,135,0.0,0.0,55,0.00,,,0.00,WUHU21623XXSP,2013-10-20 23:11:00,
2013-10-20 19:16:00,55.0,39.1,30.38,SE,135,0.0,0.0,55,0.00,,,0.00,WUHU21623XXSP,2013-10-20 23:16:00,
2013-10-20 19:21:00,54.3,39.3,30.38,SE,135,0.0,0.0,57,0.00,,,0.00,WUHU21623XXSP,2013-10-20 23:21:00,
2013-10-20 19:26:00,54.3,39.8,30.37,SE,135,0.0,0.0,58,0.00,,,0.00,WUHU21623XXSP,2013-10-20 23:26:00,
2013-10-20 19:31:00,53.4,39.0,30.38,SE,135,0.0,0.0,58,0.00,,,0.00,WUHU21623XXSP,2013-10-20 23:31:00,
2013-10-20 19:36:00,53.4,39.0,30.38,SE,135,0.0,0.0,58,0.00,,,0.00,WUHU21623XXSP,2013-10-20 23:36:00,
2013-10-20 19:41:00,53.2,38.8,30.38,SE,135,0.0,0.0,58,0.00,,,0.00,WUHU21623XXSP,2013-10-20 23:41:00,
2013-10-20 19:46:00,52.9,38.8,30.38,SE,135,0.0,0.0,58,0.00,,,0.00,WUHU21623XXSP,2013-10-20 23:46:00,
2013-10-20 19:51:00,52.3,38.6,30.38,SE,135,0.0,0.0,59,0.00,,,0.00,WUHU21623XXSP,2013-10-20 23:51:00,
2013-10-20 19:56:00,52.2,38.8,30.38,SE,135,0.0,0.0,60,0.00,,,0.00,WUHU21623XXSP,2013-10-20 23:56:00,
2013-10-20 20:01:00,52.0,38.9,30.38,SE,135,0.0,0.0,61,0.00,,,0.00,WUHU21623XXSP,2013-10-21 00:01:00,
2013-10-20 20:06:00,52.0,38.5,30.38,SE,135,0.0,0.0,60,0.00,,,0.00,WUHU21623XXSP,2013-10-21 00:06:00,
2013-10-20 20:11:00,51.6,38.5,30.38,SE,135,0.0,0.0,61,0.00,,,0.00,WUHU21623XXSP,2013-10-21 00:11:00,
2013-10-20 20:16:00,50.9,38.7,30.38,SE,135,0.0,0.0,63,0.00,,,0.00,WUHU21623XXSP,2013-10-21 00:16:00,
2013-10-20 20:21:00,50.7,38.9,30.38,SE,135,0.0,0.0,64,0.00,,,0.00,WUHU21623XXSP,2013-10-21 00:21:00,
2013-10-20 20:26:00,50.4,39.0,30.38,SE,135,0.0,0.0,65,0.00,,,0.00,WUHU21623XXSP,2013-10-21 00:26:00,
2013-10-20 20:31:00,50.2,38.8,30.39,SE,135,0.0,0.0,65,0.00,,,0.00,WUHU21623XXSP,2013-10-21 00:31:00,
2013-10-20 20:36:00,49.8,38.5,30.39,SE,135,0.0,0.0,65,0.00,,,0.00,WUHU21623XXSP,2013-10-21 00:36:00,
2013-10-20 20:41:00,49.3,38.4,30.39,SE,135,0.0,0.0,66,0.00,,,0.00,WUHU21623XXSP,2013-10-21 00:41:00,
2013-10-20 20:46:00,48.7,38.2,30.39,SE,135,0.0,0.0,67,0.00,,,0.00,WUHU21623XXSP,2013-10-21 00:46:00,
2013-10-20 20:51:00,48.6,38.4,30.39,SE,135,0.0,0.0,68,0.00,,,0.00,WUHU21623XXSP,2013-10-21 00:51:00,
2013-10-20 20:56:00,48.2,38.1,30.39,SE,135,0.0,0.0,68,0.00,,,0.00,WUHU21623XXSP,2013-10-21 00:56:00,
2013-10-20 21:01:00,47.8,38.5,30.39,SE,135,0.0,0.0,70,0.00,,,0.00,WUHU21623XXSP,2013-10-21 01:01:00,
2013-10-20 21:06:00,47.8,38.5,30.39,SE,135,0.0,0.0,70,0.00,,,0.00,WUHU21623XXSP,2013-10-21 01:06:00,
2013-10-20 21:11:00,48.0,38.7,30.40,SE,135,0.0,0.0,70,0.00,,,0.00,WUHU21623XXSP,2013-10-21 01:11:00,
2013-10-20 21:16:00,47.8,38.5,30.40,SE,135,0.0,0.0,70,0.00,,,0.00,WUHU21623XXSP,2013-10-21 01:16:00,
2013-10-20 21:21:00,47.8,38.5,30.40,SE,135,0.0,0.0,70,0.00,,,0.00,WUHU21623XXSP,2013-10-21 01:21:00,
2013-10-20 21:26:00,47.5,38.9,30.40,SE,135,0.0,0.0,72,0.00,,,0.00,WUHU21623XXSP,2013-10-21 01:26:00,
2013-10-20 21:31:00,47.1,38.6,30.40,SE,135,0.0,0.0,72,0.00,,,0.00,WUHU21623XXSP,2013-10-21 01:31:00,
2013-10-20 21:36:00,46.9,38.4,30.40,SE,135,0.0,0.0,73,0.00,,,0.00,WUHU21623XXSP,2013-10-21 01:36:00,
2013-10-20 21:41:00,46.8,38.2,30.40,SE,135,0.0,0.0,72,0.00,,,0.00,WUHU21623XXSP,2013-10-21 01:41:00,
2013-10-20 21:46:00,46.2,38.1,30.41,SE,135,0.0,0.0,73,0.00,,,0.00,WUHU21623XXSP,2013-10-21 01:46:00,
2013-10-20 21:51:00,46.0,38.4,30.40,SE,135,0.0,0.0,74,0.00,,,0.00,WUHU21623XXSP,2013-10-21 01:51:00,
2013-10-20 21:56:00,45.9,38.0,30.40,SE,135,0.0,0.0,74,0.00,,,0.00,WUHU21623XXSP,2013-10-21 01:56:00,
2013-10-20 22:01:00,45.7,37.9,30.41,SE,135,0.0,0.0,75,0.00,,,0.00,WUHU21623XXSP,2013-10-21 02:01:00,
2013-10-20 22:06:00,45.7,38.2,30.41,SE,135,0.0,0.0,75,0.00,,,0.00,WUHU21623XXSP,2013-10-21 02:06:00,
2013-10-20 22:11:00,46.0,38.6,30.40,SE,135,0.0,0.0,75,0.00,,,0.00,WUHU21623XXSP,2013-10-21 02:11:00,
2013-10-20 22:16:00,45.9,38.7,30.40,SE,135,0.0,0.0,76,0.00,,,0.00,WUHU21623XXSP,2013-10-21 02:16:00,
2013-10-20 22:21:00,45.7,38.6,30.40,SE,135,0.0,0.0,76,0.00,,,0.00,WUHU21623XXSP,2013-10-21 02:21:00,
2013-10-20 22:26:00,45.5,38.4,30.41,SE,135,0.0,0.0,76,0.00,,,0.00,WUHU21623XXSP,2013-10-21 02:26:00,
2013-10-20 22:31:00,45.3,38.2,30.40,SE,135,0.0,0.0,76,0.00,,,0.00,WUHU21623XXSP,2013-10-21 02:31:00,
2013-10-20 22:36:00,45.1,38.4,30.41,SE,135,0.0,0.0,77,0.00,,,0.00,WUHU21623XXSP,2013-10-21 02:36:00,
2013-10-20 22:41:00,45.1,38.4,30.40,SE,135,0.0,0.0,77,0.00,,,0.00,WUHU21623XXSP,2013-10-21 02:41:00,
2013-10-20 22:46:00,45.0,38.2,30.40,SE,135,0.0,0.0,77,0.00,,,0.00,WUHU21623XXSP,2013-10-21 02:46:00,
2013-10-20 22:51:00,45.0,38.2,30.40,SE,135,0.0,0.0,77,0.00,,,0.00,WUHU21623XXSP,2013-10-21 02:51:00,
2013-10-20 22:56:00,44.8,38.0,30.40,SE,135,0.0,0.0,77,0.00,,,0.00,WUHU21623XXSP,2013-10-21 02:56:00,
2013-10-20 23:01:00,44.6,38.7,30.40,SE,135,0.0,0.0,79,0.00,,,0.00,WUHU21623XXSP,2013-10-21 03:01:00,
2013-10-20 23:06:00,44.4,38.5,30.40,SE,135,0.0,0.0,79,0.00,,,0.00,WUHU21623XXSP,2013-10-21 03:06:00,
2013-10-20 23:11:00,44.4,38.3,30.40,SE,135,0.0,0.0,79,0.00,,,0.00,WUHU21623XXSP,2013-10-21 03:11:00,
2013-10-20 23:16:00,44.2,38.5,30.40,SE,135,0.0,0.0,80,0.00,,,0.00,WUHU21623XXSP,2013-10-21 03:16:00,
2013-10-20 23:21:00,44.1,38.3,30.40,SE,135,0.0,0.0,80,0.00,,,0.00,WUHU21623XXSP,2013-10-21 03:21:00,
2013-10-20 23:26:00,43.9,38.1,30.40,SE,135,0.0,0.0,80,0.00,,,0.00,WUHU21623XXSP,2013-10-21 03:26:00,
2013-10-20 23:31:00,43.7,37.8,30.40,SE,135,0.0,0.0,80,0.00,,,0.00,WUHU21623XXSP,2013-10-21 03:31:00,
2013-10-20 23:36:00,43.5,37.9,30.39,SE,135,0.0,0.0,80,0.00,,,0.00,WUHU21623XXSP,2013-10-21 03:36:00,
2013-10-20 23:41:00,43.5,38.1,30.39,SE,135,0.0,0.0,81,0.00,,,0.00,WUHU21623XXSP,2013-10-21 03:41:00,
2013-10-20 23:46:00,43.5,38.1,30.40,SE,135,0.0,0.0,81,0.00,,,0.00,WUHU21623XXSP,2013-10-21 03:46:00,
2013-10-20 23:51:00,43.3,38.2,30.40,SE,135,0.0,0.0,82,0.00,,,0.00,WUHU21623XXSP,2013-10-21 03:51:00,
2013-10-20 23:56:00,43.3,37.9,30.39,SE,135,0.0,0.0,81,0.00,,,0.00,WUHU21623XXSP,2013-10-21 03:56:00,